FW8165 Weather Reports


time (UTC)temp
F
wind
direction
speed
knots
gust
knots
rain 1hr
in
rain 24hr
in
rain mn
in
humidity
%
barometer
mb
20260506135245 77 344 0.9 0.9 0.00 0.00 0.00 67 1016.6
20260506134742 76 193 3.5 3.5 0.00 0.00 0.00 67 1016.6
20260506134239 76 227 3.5 4.3 0.00 0.00 0.00 69 1016.2
20260506133736 76 210 1.7 1.7 0.00 0.00 0.00 70 1016.2
20260506133232 75 252 1.7 1.7 0.00 0.00 0.00 73 1016.2
20260506132729 75 102 0.0 0.0 0.00 0.00 0.00 73 1016.6
20260506132226 74 253 0.0 0.0 0.00 0.00 0.00 74 1016.6
20260506131725 74 92 1.7 1.7 0.00 0.00 0.00 74 1016.6
20260506131220 74 0 1.7 1.7 0.00 0.00 0.00 76 1016.6
20260506130717 73 18 1.7 1.7 0.00 0.00 0.00 78 1016.6
20260506130214 73 197 0.0 0.0 0.00 0.00 0.00 78 1016.6
20260506125712 73 53 1.7 1.7 0.00 0.00 0.00 78 1016.2
20260506125210 72 114 0.0 0.0 0.00 0.00 0.00 80 1016.2
20260506124708 72 300 1.7 1.7 0.00 0.00 0.00 81 1016.2
20260506124206 71 294 0.0 0.0 0.00 0.00 0.00 83 1016.2
20260506123702 71 277 2.6 2.6 0.00 0.00 0.00 84 1016.2
20260506123202 71 256 0.0 0.0 0.00 0.00 0.00 86 1016.2
20260506122658 70 138 1.7 1.7 0.00 0.00 0.00 86 1016.2
20260506122155 69 264 0.0 0.0 0.00 0.00 0.00 88 1016.2
20260506121653 68 190 2.6 2.6 0.00 0.00 0.00 89 1016.2
20260506121149 67 181 0.9 0.9 0.00 0.00 0.00 92 1016.2
20260506120647 66 186 2.6 2.6 0.00 0.00 0.00 95 1016.2
20260506120144 66 126 0.0 0.0 0.00 0.00 0.00 97 1016.2
20260506115643 65 186 0.0 0.0 0.00 0.00 0.00 98 1015.9
20260506115140 64 186 0.0 0.0 0.00 0.00 0.00 99 1015.9
20260506114637 63 222 0.0 0.0 0.00 0.00 0.00 99 1015.9
20260506114135 62 195 0.0 0.0 0.00 0.00 0.00 99 1015.9
20260506113634 62 196 0.0 0.0 0.00 0.00 0.00 99 1015.9
20260506113130 62 195 0.0 0.0 0.00 0.00 0.00 99 1015.9
20260506112626 61 207 0.0 0.0 0.00 0.00 0.00 99 1015.9
20260506112124 61 239 0.0 0.0 0.00 0.00 0.00 99 1015.9
20260506111622 61 231 0.0 0.0 0.00 0.00 0.00 99 1015.9
20260506111119 60 231 0.0 0.0 0.00 0.00 0.00 99 1015.9
20260506110616 60 231 0.0 0.0 0.00 0.00 0.00 99 1015.9
20260506110114 60 231 0.0 0.0 0.00 0.00 0.00 99 1015.9
20260506105610 60 231 0.0 0.0 0.00 0.00 0.00 99 1015.9
20260506105107 60 230 0.0 0.0 0.00 0.00 0.00 99 1015.9
20260506104606 60 231 0.0 0.0 0.00 0.00 0.00 99 1015.9
20260506104102 60 231 0.0 0.0 0.00 0.00 0.00 99 1015.9
20260506103600 60 231 0.0 0.0 0.00 0.00 0.00 99 1015.9
20260506103056 60 231 0.0 0.0 0.00 0.00 0.00 99 1015.9
20260506102555 60 231 0.0 0.0 0.00 0.00 0.00 99 1015.6
20260506102052 60 231 0.0 0.0 0.00 0.00 0.00 99 1015.6
20260506101548 60 231 0.0 0.0 0.00 0.00 0.00 99 1015.6
20260506101045 60 231 0.0 0.0 0.00 0.00 0.00 99 1015.9
20260506100544 60 231 0.0 0.0 0.00 0.00 0.00 99 1015.9
20260506100041 60 231 0.0 0.0 0.00 0.00 0.00 99 1015.9
20260506095540 60 231 0.0 0.0 0.00 0.00 0.00 99 1015.6
20260506095036 60 228 0.0 0.0 0.00 0.00 0.00 98 1015.6
20260506094534 60 228 0.0 0.0 0.00 0.00 0.00 98 1015.6
20260506094032 60 228 0.0 0.0 0.00 0.00 0.00 98 1015.6
20260506093530 60 228 0.0 0.0 0.00 0.00 0.00 98 1015.6
20260506093027 60 228 0.0 0.0 0.00 0.00 0.00 98 1015.6
20260506092525 60 240 0.0 0.0 0.00 0.00 0.00 98 1015.6
20260506092021 60 240 0.0 0.0 0.00 0.00 0.00 98 1015.6
20260506091520 60 242 0.0 0.0 0.00 0.00 0.00 98 1015.6
20260506091016 60 240 0.0 0.0 0.00 0.00 0.00 98 1015.9
20260506090514 60 240 0.0 0.0 0.00 0.00 0.00 97 1015.9
20260506090010 60 240 0.0 0.0 0.00 0.00 0.00 98 1015.9
20260506085507 60 240 0.0 0.0 0.00 0.00 0.00 97 1015.9
20260506085004 60 240 0.0 0.0 0.00 0.00 0.00 97 1015.9
20260506084501 60 240 0.0 0.0 0.00 0.00 0.00 97 1015.9
20260506083956 60 240 0.0 0.0 0.00 0.00 0.00 97 1015.9
20260506083454 60 240 0.0 0.0 0.00 0.00 0.00 98 1015.9
20260506082951 60 240 0.0 0.0 0.00 0.00 0.00 98 1015.9
20260506082448 60 240 0.0 0.0 0.00 0.00 0.00 98 1015.9
20260506081944 60 240 0.0 0.0 0.00 0.00 0.00 98 1015.9
20260506081442 60 240 0.0 0.0 0.00 0.00 0.00 98 1015.9
20260506080939 60 240 0.0 0.0 0.00 0.00 0.00 98 1015.9
20260506080436 60 228 0.0 0.0 0.00 0.00 0.00 98 1015.9
20260506073420 60 228 0.0 0.0 0.00 0.00 0.00 97 1015.6
20260506072918 60 228 0.0 0.0 0.00 0.00 0.00 97 1015.6
20260506072414 60 228 0.0 0.0 0.00 0.00 0.00 97 1015.6
20260506071912 60 228 0.0 0.0 0.00 0.00 0.00 97 1015.6
20260506071410 60 228 0.0 0.0 0.00 0.00 0.00 96 1015.6
20260506070907 60 228 0.0 0.0 0.00 0.00 0.00 97 1015.6
20260506070403 60 228 0.0 0.0 0.00 0.00 0.00 96 1015.6
20260506062341 60 232 0.0 0.0 0.00 0.00 0.00 95 1015.9
20260506061837 60 232 0.0 0.0 0.00 0.00 0.00 95 1015.9
20260506061333 60 228 0.0 0.0 0.00 0.00 0.00 95 1015.9
20260506060832 60 228 0.0 0.0 0.00 0.00 0.00 95 1015.9
20260506060329 60 228 0.0 0.0 0.00 0.00 0.00 95 1015.9
20260506051301 60 222 0.0 0.0 0.00 0.00 0.00 93 1016.6
20260506050759 60 222 0.0 0.0 0.00 0.00 0.00 93 1016.6
20260506050256 60 222 0.0 0.0 0.00 0.00 0.00 93 1016.6
20260506044747 61 222 0.0 0.0 0.00 0.00 0.00 92 1016.6
20260506044244 61 222 0.0 0.0 0.00 0.00 0.00 92 1016.9
20260506043741 61 222 0.0 0.0 0.00 0.00 0.00 91 1016.9
20260506043239 61 222 0.0 0.0 0.00 0.00 0.00 91 1016.9
20260506042737 61 222 0.0 0.0 0.00 0.00 0.00 91 1016.9
20260506042236 61 240 0.0 0.0 0.00 0.00 0.00 90 1016.9
20260506041734 61 240 0.0 0.0 0.00 0.00 0.00 90 1016.9
20260506041230 61 240 0.0 0.0 0.00 0.00 0.00 90 1016.6
20260506040728 61 244 0.0 0.0 0.00 0.00 0.00 89 1016.6
20260506040225 61 246 0.0 0.0 0.00 0.00 0.00 89 1016.6
20260506035721 62 246 0.0 0.0 0.00 0.00 0.00 88 1016.6
20260506035219 62 246 0.0 0.0 0.00 0.00 0.00 88 1016.6
20260506034715 62 246 0.0 0.0 0.00 0.00 0.00 88 1016.6
20260506034212 62 246 0.0 0.0 0.00 0.00 0.00 88 1016.6
20260506033710 62 240 0.0 0.0 0.00 0.00 0.00 88 1016.6
20260506033206 62 240 0.0 0.0 0.00 0.00 0.00 88 1016.6
20260506032703 62 242 0.0 0.0 0.00 0.00 0.00 87 1016.6
20260506032201 62 240 0.0 0.0 0.00 0.00 0.00 87 1016.6
20260506031657 62 252 0.0 0.0 0.00 0.00 0.00 86 1016.6
20260506031154 62 252 0.0 0.0 0.00 0.00 0.00 86 1016.6
20260506030653 63 252 0.0 0.0 0.00 0.00 0.00 86 1016.6
20260506030150 63 252 0.0 0.0 0.00 0.00 0.00 86 1016.6
20260506025646 63 234 0.0 0.0 0.00 0.00 0.00 86 1016.6
20260506025142 63 232 0.0 0.0 0.00 0.00 0.00 85 1016.6
20260506024640 63 240 0.0 0.0 0.00 0.00 0.00 85 1016.6
20260506024136 63 240 0.0 0.0 0.00 0.00 0.00 85 1016.9
20260506023633 63 240 0.0 0.0 0.00 0.00 0.00 85 1016.9
20260506023130 63 240 0.0 0.0 0.00 0.00 0.00 84 1016.9
20260506022627 64 240 0.0 0.0 0.00 0.00 0.00 84 1016.9
20260506022125 64 240 0.0 0.0 0.00 0.00 0.00 84 1016.9
20260506021622 64 240 0.0 0.0 0.00 0.00 0.00 84 1016.9
20260506021119 64 240 0.0 0.0 0.00 0.00 0.00 82 1016.9
20260506020616 64 240 0.0 0.0 0.00 0.00 0.00 82 1016.9
20260506020114 65 240 0.0 0.0 0.00 0.00 0.00 82 1016.9
20260506015611 65 240 0.0 0.0 0.00 0.00 0.00 81 1016.9
20260506015108 65 264 0.0 0.0 0.00 0.00 0.00 81 1016.9
20260506014606 65 276 0.0 0.0 0.00 0.00 0.00 81 1016.9
20260506014101 65 262 0.0 0.0 0.00 0.00 0.00 80 1016.2
20260506013559 65 138 0.0 0.0 0.00 0.00 0.00 81 1016.2
20260506013056 65 192 0.0 0.0 0.00 0.00 0.00 81 1016.2
20260506012552 66 216 0.0 0.0 0.00 0.00 0.00 80 1016.6
20260506012048 66 255 0.0 0.0 0.00 0.00 0.00 80 1016.6
20260506011547 66 258 0.0 0.0 0.00 0.00 0.00 79 1016.6
20260506011042 67 191 0.0 0.0 0.00 0.00 0.00 78 1016.6
20260506010536 67 191 0.0 0.0 0.00 0.00 0.00 77 1016.6
20260506010032 67 191 0.0 0.0 0.00 0.00 0.00 76 1016.6
20260506005529 67 191 0.0 0.0 0.00 0.00 0.00 76 1016.2
20260506005025 68 186 0.0 0.0 0.00 0.00 0.00 76 1016.2
20260506004523 68 132 0.0 0.0 0.00 0.00 0.00 75 1016.2
20260506004019 68 174 0.0 0.0 0.00 0.00 0.00 74 1016.6
20260506003516 68 150 0.0 0.0 0.00 0.00 0.00 73 1016.6
20260506003012 69 144 0.0 0.0 0.00 0.00 0.00 72 1016.6
20260506002508 69 174 0.0 0.0 0.00 0.00 0.00 71 1016.6
20260506002004 69 170 0.0 0.0 0.00 0.00 0.00 70 1016.6
20260506001501 70 113 0.9 0.9 0.00 0.00 0.00 69 1016.6
20260506000958 70 225 0.0 0.0 0.00 0.00 0.00 68 1016.6
20260506000455 70 186 0.0 0.0 0.00 0.00 0.00 67 1016.6
20260505235952 71 168 0.0 0.0 0.00 0.00 0.00 66 1016.6
20260505235450 71 84 0.0 0.0 0.00 0.00 0.00 65 1016.6
20260505234946 71 126 0.0 0.0 0.00 0.00 0.00 64 1016.6
20260505234444 71 42 0.0 0.0 0.00 0.00 0.00 64 1016.2
20260505233940 71 108 0.0 0.0 0.00 0.00 0.00 62 1016.2
20260505233438 72 108 1.7 1.7 0.00 0.00 0.00 61 1016.2
20260505232936 72 140 0.0 0.0 0.00 0.00 0.00 61 1015.9
20260505232434 72 61 2.6 2.6 0.00 0.00 0.00 62 1015.9
20260505231930 72 260 0.0 0.0 0.00 0.00 0.00 62 1015.9
20260505231428 72 102 0.0 0.0 0.00 0.00 0.00 63 1016.2
20260505230926 73 120 2.6 2.6 0.00 0.00 0.00 62 1016.2
20260505230423 73 108 1.7 1.7 0.00 0.00 0.00 63 1016.2
20260505225919 73 156 0.0 0.0 0.00 0.00 0.00 62 1016.2
20260505225417 73 72 1.7 1.7 0.00 0.00 0.00 61 1016.2
20260505224912 73 174 1.7 1.7 0.00 0.00 0.00 61 1016.2
20260505224410 73 174 3.5 3.5 0.00 0.00 0.00 61 1016.6
20260505223907 74 270 1.7 1.7 0.00 0.00 0.00 61 1016.6
20260505223404 73 102 1.7 1.7 0.00 0.00 0.00 60 1016.6
20260505222900 74 124 1.7 1.7 0.00 0.00 0.00 60 1016.6
20260505222356 75 62 0.0 0.0 0.00 0.00 0.00 60 1016.6
20260505221853 75 348 1.7 1.7 0.00 0.00 0.00 60 1016.6
20260505221350 75 126 2.6 2.6 0.00 0.00 0.00 60 1016.6
20260505220847 74 126 0.0 0.0 0.00 0.00 0.00 61 1016.6
20260505220344 74 102 2.6 2.6 0.00 0.00 0.00 62 1016.6
20260505215841 76 120 3.5 3.5 0.00 0.00 0.00 59 1016.6
20260505215339 77 239 1.7 1.7 0.00 0.00 0.00 58 1016.6
20260505214837 76 312 1.7 1.7 0.00 0.00 0.00 57 1016.6
20260505214335 77 128 4.3 4.3 0.00 0.00 0.00 58 1016.9
20260505213831 76 96 1.7 1.7 0.00 0.00 0.00 58 1016.9
20260505213329 76 106 3.5 3.5 0.00 0.00 0.00 59 1016.9
20260505212825 78 127 1.7 1.7 0.00 0.00 0.00 58 1016.6
20260505212322 78 101 1.7 1.7 0.00 0.00 0.00 58 1016.6
20260505211818 77 268 2.6 3.5 0.00 0.00 0.00 58 1016.6
20260505211316 77 68 0.0 0.0 0.00 0.00 0.00 58 1016.6
20260505210812 76 97 0.9 0.9 0.00 0.00 0.00 59 1016.6
20260505210309 75 72 1.7 1.7 0.00 0.00 0.00 60 1016.6
20260505205806 77 234 3.5 3.5 0.00 0.00 0.00 58 1016.6
20260505205305 76 60 1.7 1.7 0.00 0.00 0.00 60 1016.6
20260505204801 78 116 1.7 1.7 0.00 0.00 0.00 55 1016.6
20260505204259 80 247 2.6 2.6 0.00 0.00 0.00 52 1016.2
20260505203756 78 168 0.0 0.0 0.00 0.00 0.00 54 1016.2
20260505203253 79 114 3.5 4.3 0.00 0.00 0.00 55 1016.2
20260505202749 79 126 2.6 3.5 0.00 0.00 0.00 53 1016.6
20260505202245 80 78 2.6 2.6 0.00 0.00 0.00 51 1016.6
20260505201742 80 193 1.7 1.7 0.00 0.00 0.00 51 1016.6
20260505201239 79 246 2.6 2.6 0.00 0.00 0.00 49 1016.9
20260505200738 79 71 1.7 1.7 0.00 0.00 0.00 51 1016.9
20260505200235 79 93 1.7 1.7 0.00 0.00 0.00 51 1016.9
20260505195729 78 234 2.6 2.6 0.00 0.00 0.00 53 1016.9
20260505195227 79 216 3.5 3.5 0.00 0.00 0.00 51 1016.9
20260505194724 79 222 2.6 2.6 0.00 0.00 0.00 51 1016.9
20260505194221 79 339 2.6 2.6 0.00 0.00 0.00 50 1017.6
20260505193717 78 319 0.0 0.0 0.00 0.00 0.00 51 1017.6
20260505193214 78 216 2.6 2.6 0.00 0.00 0.00 52 1017.6
20260505192713 77 107 3.5 3.5 0.00 0.00 0.00 50 1017.6
20260505192210 76 90 2.6 2.6 0.00 0.00 0.00 53 1017.6
20260505191708 79 92 3.5 4.3 0.00 0.00 0.00 51 1017.6
20260505191206 78 124 1.7 1.7 0.00 0.00 0.00 51 1017.9
20260505190702 78 41 4.3 4.3 0.00 0.00 0.00 54 1017.9
20260505190201 78 0 1.7 1.7 0.00 0.00 0.00 50 1017.9
20260505185659 78 179 1.7 1.7 0.00 0.00 0.00 51 1017.9
20260505185155 78 49 2.6 2.6 0.00 0.00 0.00 53 1017.9
20260505184651 78 112 1.7 1.7 0.00 0.00 0.00 54 1017.9
20260505184149 78 118 4.3 5.2 0.00 0.00 0.00 51 1017.6
20260505183645 79 126 2.6 2.6 0.00 0.00 0.00 52 1017.6
20260505183143 79 54 0.0 0.0 0.00 0.00 0.00 53 1017.6
20260505182639 79 240 3.5 3.5 0.00 0.00 0.00 52 1017.6
20260505182136 79 110 1.7 1.7 0.00 0.00 0.00 54 1017.6
20260505181632 79 306 4.3 5.2 0.00 0.00 0.00 52 1017.6
20260505181130 80 122 1.7 1.7 0.00 0.00 0.00 53 1017.6
20260505180626 79 216 0.9 0.9 0.00 0.00 0.00 55 1017.6
20260505180124 78 138 3.5 3.5 0.00 0.00 0.00 55 1017.6
20260505175619 79 101 1.7 1.7 0.00 0.00 0.00 53 1017.6
20260505175116 78 144 1.7 1.7 0.00 0.00 0.00 55 1017.6
20260505174613 79 145 0.0 0.0 0.00 0.00 0.00 54 1017.6
20260505174108 78 108 1.7 1.7 0.00 0.00 0.00 56 1017.6
20260505173605 77 61 1.7 1.7 0.00 0.00 0.00 56 1017.6
20260505173102 78 42 2.6 2.6 0.00 0.00 0.00 55 1017.6
20260505172600 78 238 2.6 3.5 0.00 0.00 0.00 54 1017.9
20260505172057 78 5 1.7 1.7 0.00 0.00 0.00 55 1017.9
20260505171551 78 313 2.6 2.6 0.00 0.00 0.00 53 1017.9
20260505171048 78 267 4.3 4.3 0.00 0.00 0.00 53 1017.9
20260505170545 78 335 3.5 4.3 0.00 0.00 0.00 52 1017.9
20260505170042 78 275 4.3 4.3 0.00 0.00 0.00 54 1017.9
20260505165537 77 174 1.7 1.7 0.00 0.00 0.00 54 1018.3
20260505165032 76 193 0.0 0.0 0.00 0.00 0.00 55 1018.3
20260505164529 77 115 3.5 3.5 0.00 0.00 0.00 53 1018.3
20260505164027 78 74 1.7 1.7 0.00 0.00 0.00 53 1017.9
20260505163525 77 173 1.7 1.7 0.00 0.00 0.00 53 1017.9
20260505163022 77 246 1.7 1.7 0.00 0.00 0.00 54 1018.3
20260505162515 77 246 1.7 1.7 0.00 0.00 0.00 54 1018.3
20260505162012 77 148 0.9 0.9 0.00 0.00 0.00 52 1018.3
20260505161509 77 194 0.0 0.0 0.00 0.00 0.00 52 1018.3
20260505161006 76 110 0.9 0.9 0.00 0.00 0.00 55 1018.3
20260505160504 78 136 1.7 1.7 0.00 0.00 0.00 54 1018.3
20260505152940 76 114 2.6 2.6 0.00 0.00 0.00 56 1018.3
20260505152437 75 30 1.7 1.7 0.00 0.00 0.00 59 1018.3
20260505151937 76 84 0.0 0.0 0.00 0.00 0.00 58 1018.3
20260505151428 75 18 0.0 0.0 0.00 0.00 0.00 58 1018.3
20260505150926 75 270 0.0 0.0 0.00 0.00 0.00 58 1018.3
20260505150422 74 318 1.7 1.7 0.00 0.00 0.00 59 1018.3
20260505140352 72 264 0.0 0.0 0.00 0.00 0.00 66 1017.9